Home > Weather > Rheine > Past weeks

Flag for Germany Past Weather in Rheine, North Rhine-Westphalia, Germany — Yesterday and Last 2 Weeks

Now
59 °F

Cool.


Feels Like: 58 °F
Forecast: 60 / 69 °F
Wind: 7 mph from East

Location: Rheine-Bentlage

Current Time: May 28, 2016 at 8:13:08 AM

Latest Report: May 28, 2016 at 7:20 AM


Visibility: N/A

Pressure: 29.98 "Hg

Humidity: 88%

Dew Point: 55 °F

Location of RheineLocation

Past Weather in Rheine — Graph

°F

Rheine Temperature Yesterday

Maximum temperature yesterday: 66 °F (at 5:20 PM)
Minimum temperature yesterday: 50 °F (at 5:20 AM)
Average temperature yesterday: 58 °F

High & Low Weather Summary for the Past Weeks

 TemperatureHumidityPressure
High75 °F (May 22, 11:20 AM)100% (May 21, 5:20 AM)30.09 "Hg (May 21, 5:20 AM)
Low37 °F (May 16, 2:20 AM)25% (May 13, 1:20 PM)29.59 "Hg (May 13, 6:20 AM)
Average55 °F75%29.93 "Hg
* Reported May 13 6:20 AM — May 28 6:20 AM, Rheine, Weather by CustomWeather, © 2016

Note: Actual official high and low records may vary slightly from our data, if they occured in-between our weather recording intervals... More about our weather records

Advertising

Rheine Weather History for the Previous 24 Hours

Scroll right to see more
 ConditionsComfort  
Time TempWeatherWind HumidityBarometerVisibility
6:20 AM
Sat, May 28
59 °FCool.3 mph88%29.98 "HgN/A
5:20 AM57 °FCool.5 mph88%29.98 "HgN/A
4:20 AM59 °FCool.5 mph82%29.98 "HgN/A
3:20 AM59 °FCool.6 mph82%29.98 "HgN/A
2:20 AM59 °FCool.5 mph82%29.98 "HgN/A
1:20 AM59 °FCool.2 mph82%29.98 "HgN/A
12:20 AM59 °FCool.3 mph82%29.98 "HgN/A
11:20 PM
Fri, May 27
61 °FCool.3 mph83%30.01 "HgN/A
10:20 PM61 °FCool.3 mph83%30.01 "HgN/A
9:20 PM63 °FMild.5 mph77%29.98 "HgN/A
8:20 PM64 °FMild.6 mph78%29.98 "HgN/A
7:20 PM64 °FMild.6 mph73%29.98 "HgN/A
6:20 PM66 °FMild.8 mph64%29.98 "HgN/A
5:20 PM66 °FMild.8 mph68%30.01 "HgN/A
4:20 PM63 °FMild.5 mph77%30.01 "HgN/A
3:20 PM61 °FCool.3 mph83%30.04 "HgN/A
2:20 PM61 °FCool.6 mph77%30.04 "HgN/A
1:20 PM59 °FCool.7 mph82%30.04 "HgN/A
12:20 PM59 °FCool.9 mph82%30.04 "HgN/A
11:20 AM59 °FCool.9 mph82%30.04 "HgN/A
10:20 AM57 °FCool.12 mph82%30.04 "HgN/A
9:20 AM55 °FCool.9 mph88%30.04 "HgN/A
8:20 AM54 °FCool.9 mph94%30.04 "HgN/A
Weather by CustomWeather, © 2016

See weather overviewHow to use our weather pages